Time,TemperatureF,DewpointF,PressureIn,WindDirection,WindDirectionDegrees,WindSpeedMPH,WindSpeedGustMPH,Humidity,HourlyPrecipIn,Conditions,Clouds,dailyrainin,SoftwareType,DateUTC
2013-02-17 00:05:00,61.2,46.0,30.12,NW,322,6.0,23.0,58,0.00,,,0.00,weatherlink.com 1.10,2013-02-17 05:05:00,
2013-02-17 00:21:00,61.0,46.0,30.12,NW,320,15.0,26.0,58,0.00,,,0.00,weatherlink.com 1.10,2013-02-17 05:21:00,
2013-02-17 00:35:00,60.8,46.0,30.12,NW,306,15.0,28.0,59,0.00,,,0.00,weatherlink.com 1.10,2013-02-17 05:35:00,
2013-02-17 00:50:00,60.6,46.0,30.12,NW,309,13.0,28.0,58,0.00,,,0.00,weatherlink.com 1.10,2013-02-17 05:50:00,
2013-02-17 01:05:00,60.5,45.0,30.13,WNW,295,11.0,24.0,56,0.00,,,0.00,weatherlink.com 1.10,2013-02-17 06:05:00,
2013-02-17 01:20:00,60.3,43.0,30.13,West,281,13.0,21.0,54,0.00,,,0.00,weatherlink.com 1.10,2013-02-17 06:20:00,
2013-02-17 01:35:00,60.1,44.0,30.13,NW,316,12.0,22.0,56,0.00,,,0.00,weatherlink.com 1.10,2013-02-17 06:35:00,
2013-02-17 01:50:00,60.3,46.0,30.12,NW,322,6.0,21.0,59,0.00,,,0.00,weatherlink.com 1.10,2013-02-17 06:50:00,
2013-02-17 02:05:00,60.2,45.0,30.12,North,351,13.0,26.0,58,0.00,,,0.00,weatherlink.com 1.10,2013-02-17 07:05:00,
2013-02-17 02:20:00,59.5,45.0,30.13,North,6,10.0,26.0,59,0.00,,,0.00,weatherlink.com 1.10,2013-02-17 07:20:00,
2013-02-17 02:35:00,58.3,45.0,30.13,North,359,12.0,17.0,61,0.00,,,0.00,weatherlink.com 1.10,2013-02-17 07:35:00,
2013-02-17 02:50:00,57.9,44.0,30.13,North,353,4.0,17.0,61,0.00,,,0.00,weatherlink.com 1.10,2013-02-17 07:50:00,
2013-02-17 03:05:00,57.7,44.0,30.13,North,360,7.0,20.0,61,0.00,,,0.00,weatherlink.com 1.10,2013-02-17 08:05:00,
2013-02-17 03:20:00,57.3,44.0,30.14,NNW,343,12.0,21.0,61,0.00,,,0.00,weatherlink.com 1.10,2013-02-17 08:20:00,
2013-02-17 03:35:00,56.2,42.0,30.15,NNE,24,14.0,22.0,59,0.00,,,0.00,weatherlink.com 1.10,2013-02-17 08:35:00,
2013-02-17 03:50:00,54.6,40.0,30.16,NNE,21,10.0,24.0,58,0.00,,,0.00,weatherlink.com 1.10,2013-02-17 08:50:00,
2013-02-17 04:05:00,52.8,38.0,30.17,North,355,11.0,27.0,57,0.00,,,0.00,weatherlink.com 1.10,2013-02-17 09:05:00,
2013-02-17 04:21:00,51.9,37.0,30.17,NNE,12,13.0,26.0,58,0.00,,,0.00,weatherlink.com 1.10,2013-02-17 09:21:00,
2013-02-17 04:36:00,51.3,38.0,30.17,NNE,31,10.0,18.0,60,0.00,,,0.00,weatherlink.com 1.10,2013-02-17 09:36:00,
2013-02-17 04:51:00,50.2,35.0,30.18,North,10,11.0,20.0,57,0.00,,,0.00,weatherlink.com 1.10,2013-02-17 09:51:00,
2013-02-17 05:06:00,49.6,34.0,30.19,NNE,20,13.0,18.0,56,0.00,,,0.00,weatherlink.com 1.10,2013-02-17 10:06:00,
2013-02-17 05:22:00,48.9,34.0,30.20,NE,48,12.0,22.0,56,0.00,,,0.00,weatherlink.com 1.10,2013-02-17 10:22:00,
2013-02-17 05:36:00,48.2,32.0,30.21,NE,41,12.0,18.0,53,0.00,,,0.00,weatherlink.com 1.10,2013-02-17 10:36:00,
2013-02-17 05:51:00,47.8,31.0,30.22,NNE,25,10.0,20.0,52,0.00,,,0.00,weatherlink.com 1.10,2013-02-17 10:51:00,
2013-02-17 06:06:00,47.4,30.0,30.22,NNE,22,9.0,22.0,51,0.00,,,0.00,weatherlink.com 1.10,2013-02-17 11:06:00,
2013-02-17 06:21:00,46.7,29.0,30.23,NNE,14,11.0,21.0,51,0.00,,,0.00,weatherlink.com 1.10,2013-02-17 11:21:00,
2013-02-17 06:36:00,46.3,28.0,30.23,NNE,26,10.0,20.0,50,0.00,,,0.00,weatherlink.com 1.10,2013-02-17 11:36:00,
2013-02-17 06:51:00,45.9,27.0,30.24,NE,37,12.0,21.0,48,0.00,,,0.00,weatherlink.com 1.10,2013-02-17 11:51:00,
2013-02-17 07:06:00,45.6,27.0,30.25,North,9,10.0,18.0,48,0.00,,,0.00,weatherlink.com 1.10,2013-02-17 12:06:00,
2013-02-17 07:21:00,45.4,27.0,30.26,NNE,24,8.0,18.0,49,0.00,,,0.00,weatherlink.com 1.10,2013-02-17 12:21:00,
2013-02-17 07:36:00,45.4,27.0,30.26,NNE,20,7.0,15.0,49,0.00,,,0.00,weatherlink.com 1.10,2013-02-17 12:36:00,
2013-02-17 07:51:00,45.8,27.0,30.27,NNE,16,11.0,17.0,48,0.00,,,0.00,weatherlink.com 1.10,2013-02-17 12:51:00,
2013-02-17 08:06:00,46.3,27.0,30.27,NNE,25,12.0,25.0,47,0.00,,,0.00,weatherlink.com 1.10,2013-02-17 13:06:00,
2013-02-17 08:21:00,46.9,26.0,30.29,NNE,25,7.0,18.0,45,0.00,,,0.00,weatherlink.com 1.10,2013-02-17 13:21:00,
2013-02-17 08:36:00,47.7,27.0,30.29,NNE,25,8.0,20.0,44,0.00,,,0.00,weatherlink.com 1.10,2013-02-17 13:36:00,
2013-02-17 08:51:00,48.5,27.0,30.30,NE,38,13.0,22.0,44,0.00,,,0.00,weatherlink.com 1.10,2013-02-17 13:51:00,
2013-02-17 09:06:00,49.2,27.0,30.30,NNE,15,20.0,24.0,43,0.00,,,0.00,weatherlink.com 1.10,2013-02-17 14:06:00,
2013-02-17 09:21:00,49.9,27.0,30.30,NE,35,7.0,25.0,42,0.00,,,0.00,weatherlink.com 1.10,2013-02-17 14:21:00,
2013-02-17 09:36:00,50.8,29.0,30.31,NNE,15,18.0,22.0,43,0.00,,,0.00,weatherlink.com 1.10,2013-02-17 14:36:00,
2013-02-17 09:52:00,51.5,29.0,30.31,NNE,14,9.0,19.0,42,0.00,,,0.00,weatherlink.com 1.10,2013-02-17 14:52:00,
2013-02-17 10:07:00,52.2,30.0,30.32,NNE,31,12.0,17.0,43,0.00,,,0.00,weatherlink.com 1.10,2013-02-17 15:07:00,
2013-02-17 10:22:00,53.2,31.0,30.32,NNE,31,16.0,24.0,43,0.00,,,0.00,weatherlink.com 1.10,2013-02-17 15:22:00,
2013-02-17 10:37:00,53.9,32.0,30.32,North,1,9.0,20.0,43,0.00,,,0.00,weatherlink.com 1.10,2013-02-17 15:37:00,
2013-02-17 10:52:00,55.0,33.0,30.32,NNE,27,7.0,22.0,43,0.00,,,0.00,weatherlink.com 1.10,2013-02-17 15:52:00,
2013-02-17 11:07:00,55.4,33.0,30.32,North,7,7.0,20.0,43,0.00,,,0.00,weatherlink.com 1.10,2013-02-17 16:07:00,
2013-02-17 11:22:00,56.4,34.0,30.32,North,358,15.0,18.0,43,0.00,,,0.00,weatherlink.com 1.10,2013-02-17 16:22:00,
2013-02-17 11:37:00,56.1,34.0,30.32,NNW,327,5.0,18.0,43,0.00,,,0.00,weatherlink.com 1.10,2013-02-17 16:37:00,
2013-02-17 11:52:00,56.8,34.0,30.32,NNW,342,8.0,17.0,42,0.00,,,0.00,weatherlink.com 1.10,2013-02-17 16:52:00,
2013-02-17 12:07:00,57.5,34.0,30.32,NNW,348,9.0,21.0,42,0.00,,,0.00,weatherlink.com 1.10,2013-02-17 17:07:00,
2013-02-17 12:22:00,57.5,33.0,30.32,NNE,15,11.0,22.0,40,0.00,,,0.00,weatherlink.com 1.10,2013-02-17 17:22:00,
2013-02-17 12:37:00,58.4,34.0,30.31,North,6,14.0,22.0,40,0.00,,,0.00,weatherlink.com 1.10,2013-02-17 17:37:00,
2013-02-17 12:52:00,58.9,34.0,30.31,North,3,11.0,17.0,40,0.00,,,0.00,weatherlink.com 1.10,2013-02-17 17:52:00,
2013-02-17 13:07:00,59.5,34.0,30.30,NNE,16,11.0,19.0,38,0.00,,,0.00,weatherlink.com 1.10,2013-02-17 18:07:00,
2013-02-17 13:22:00,60.0,35.0,30.29,NNW,340,9.0,21.0,39,0.00,,,0.00,weatherlink.com 1.10,2013-02-17 18:22:00,
2013-02-17 13:37:00,59.9,33.0,30.29,North,359,20.0,20.0,37,0.00,,,0.00,weatherlink.com 1.10,2013-02-17 18:37:00,
2013-02-17 13:52:00,60.4,34.0,30.28,NNW,348,9.0,15.0,37,0.00,,,0.00,weatherlink.com 1.10,2013-02-17 18:52:00,
2013-02-17 14:07:00,61.4,34.0,30.27,NNE,22,3.0,16.0,36,0.00,,,0.00,weatherlink.com 1.10,2013-02-17 19:07:00,
2013-02-17 14:22:00,63.2,35.0,30.27,NNE,31,6.0,16.0,35,0.00,,,0.00,weatherlink.com 1.10,2013-02-17 19:22:00,
2013-02-17 14:37:00,63.7,35.0,30.27,North,349,8.0,12.0,34,0.00,,,0.00,weatherlink.com 1.10,2013-02-17 19:37:00,
2013-02-17 14:52:00,63.3,34.0,30.27,North,11,15.0,15.0,33,0.00,,,0.00,weatherlink.com 1.10,2013-02-17 19:52:00,
2013-02-17 15:07:00,62.8,33.0,30.27,WNW,301,4.0,13.0,33,0.00,,,0.00,weatherlink.com 1.10,2013-02-17 20:07:00,
2013-02-17 15:22:00,63.8,36.0,30.26,NNE,33,7.0,13.0,35,0.00,,,0.00,weatherlink.com 1.10,2013-02-17 20:22:00,
2013-02-17 15:37:00,64.3,35.0,30.26,NNE,25,13.0,14.0,34,0.00,,,0.00,weatherlink.com 1.10,2013-02-17 20:37:00,
2013-02-17 15:52:00,64.6,35.0,30.26,North,8,3.0,9.0,34,0.00,,,0.00,weatherlink.com 1.10,2013-02-17 20:52:00,
2013-02-17 16:07:00,64.0,33.0,30.26,NNW,345,5.0,13.0,31,0.00,,,0.00,weatherlink.com 1.10,2013-02-17 21:07:00,
2013-02-17 16:22:00,64.7,33.0,30.26,NNW,345,4.0,14.0,31,0.00,,,0.00,weatherlink.com 1.10,2013-02-17 21:22:00,
2013-02-17 16:37:00,64.3,33.0,30.27,North,360,8.0,9.0,31,0.00,,,0.00,weatherlink.com 1.10,2013-02-17 21:37:00,
2013-02-17 16:52:00,64.3,34.0,30.27,North,359,3.0,12.0,32,0.00,,,0.00,weatherlink.com 1.10,2013-02-17 21:52:00,
2013-02-17 17:07:00,64.0,33.0,30.27,North,4,2.0,11.0,31,0.00,,,0.00,weatherlink.com 1.10,2013-02-17 22:07:00,
2013-02-17 17:22:00,63.1,32.0,30.27,North,6,7.0,11.0,31,0.00,,,0.00,weatherlink.com 1.10,2013-02-17 22:22:00,
2013-02-17 17:37:00,62.3,32.0,30.27,North,360,3.0,7.0,32,0.00,,,0.00,weatherlink.com 1.10,2013-02-17 22:37:00,
2013-02-17 17:52:00,62.2,32.0,30.27,North,360,4.0,10.0,32,0.00,,,0.00,weatherlink.com 1.10,2013-02-17 22:52:00,
2013-02-17 18:07:00,61.5,32.0,30.27,NNE,16,2.0,6.0,33,0.00,,,0.00,weatherlink.com 1.10,2013-02-17 23:07:00,
2013-02-17 18:22:00,60.4,32.0,30.28,North,10,5.0,6.0,35,0.00,,,0.00,weatherlink.com 1.10,2013-02-17 23:22:00,
2013-02-17 18:37:00,58.6,33.0,30.28,North,10,1.0,4.0,38,0.00,,,0.00,weatherlink.com 1.10,2013-02-17 23:37:00,
2013-02-17 18:52:00,57.1,33.0,30.29,North,10,2.0,3.0,41,0.00,,,0.00,weatherlink.com 1.10,2013-02-17 23:52:00,
2013-02-17 19:07:00,55.6,35.0,30.29,North,10,1.0,3.0,46,0.00,,,0.00,weatherlink.com 1.10,2013-02-18 00:07:00,
2013-02-17 19:22:00,54.4,36.0,30.29,North,10,1.0,3.0,50,0.00,,,0.00,weatherlink.com 1.10,2013-02-18 00:22:00,
2013-02-17 19:37:00,53.5,37.0,30.30,North,10,2.0,3.0,53,0.00,,,0.00,weatherlink.com 1.10,2013-02-18 00:37:00,
2013-02-17 19:52:00,52.6,36.0,30.30,North,10,2.0,4.0,54,0.00,,,0.00,weatherlink.com 1.10,2013-02-18 00:52:00,
2013-02-17 20:07:00,51.8,36.0,30.30,North,10,2.0,3.0,55,0.00,,,0.00,weatherlink.com 1.10,2013-02-18 01:07:00,
2013-02-17 20:22:00,51.2,35.0,30.30,North,10,3.0,5.0,55,0.00,,,0.00,weatherlink.com 1.10,2013-02-18 01:22:00,
2013-02-17 20:37:00,50.7,35.0,30.30,North,10,2.0,5.0,56,0.00,,,0.00,weatherlink.com 1.10,2013-02-18 01:37:00,
2013-02-17 20:52:00,50.4,35.0,30.31,North,10,2.0,4.0,57,0.00,,,0.00,weatherlink.com 1.10,2013-02-18 01:52:00,
2013-02-17 21:07:00,49.8,35.0,30.31,North,10,3.0,5.0,58,0.00,,,0.00,weatherlink.com 1.10,2013-02-18 02:07:00,
2013-02-17 21:22:00,49.0,35.0,30.32,NNE,18,4.0,5.0,59,0.00,,,0.00,weatherlink.com 1.10,2013-02-18 02:22:00,
2013-02-17 21:37:00,48.2,34.0,30.32,NE,38,5.0,6.0,59,0.00,,,0.00,weatherlink.com 1.10,2013-02-18 02:37:00,
2013-02-17 21:52:00,47.6,34.0,30.33,NE,38,4.0,5.0,60,0.00,,,0.00,weatherlink.com 1.10,2013-02-18 02:52:00,
2013-02-17 22:07:00,47.1,35.0,30.34,NE,38,3.0,4.0,62,0.00,,,0.00,weatherlink.com 1.10,2013-02-18 03:07:00,
2013-02-17 22:22:00,46.6,34.0,30.33,NE,38,2.0,4.0,63,0.00,,,0.00,weatherlink.com 1.10,2013-02-18 03:22:00,
2013-02-17 22:37:00,46.1,34.0,30.34,NE,38,3.0,4.0,64,0.00,,,0.00,weatherlink.com 1.10,2013-02-18 03:37:00,
2013-02-17 22:52:00,45.9,35.0,30.34,NE,38,3.0,4.0,66,0.00,,,0.00,weatherlink.com 1.10,2013-02-18 03:52:00,
2013-02-17 23:07:00,45.7,35.0,30.34,NE,38,4.0,4.0,66,0.00,,,0.00,weatherlink.com 1.10,2013-02-18 04:07:00,
2013-02-17 23:22:00,45.2,36.0,30.34,NE,39,5.0,6.0,69,0.00,,,0.00,weatherlink.com 1.10,2013-02-18 04:22:00,
2013-02-17 23:37:00,44.8,34.0,30.34,NE,54,5.0,8.0,67,0.00,,,0.00,weatherlink.com 1.10,2013-02-18 04:37:00,
2013-02-17 23:52:00,44.9,34.0,30.34,NE,54,5.0,8.0,66,0.00,,,0.00,weatherlink.com 1.10,2013-02-18 04:52:00,